Volver al catálogo

STARLINK-4043

ActivoComunicacionesVLEO
NORAD 52836·PAYLOAD·🇺🇸 United States

Lanzado Jun 17, 2022 desde Cape Canaveral Space Force Station

Loading…

Próximos Pases (próximas 24 horas)

TLE

ActualizadoSource: CelesTrak SupGP

Época: Sep 15, 2026, 02:21 UTC

1 52836C 22062G   26258.09840278  .00578610  00000+0  21563-1 0  2589
2 52836  53.1600 234.2719 0001280  95.9507   2.8614 15.26622326    12

Sigue STARLINK-4043 en tiempo real con AllMySat

Download on the App Store